Muncie, IN

9:49 AM EDT on June 26, 2017 (GMT -0400)
Delaware County-Johnson

Weather History for KMIE - April, 2015

Change the Weather History Date:

Wednesday, April 1, 2015

  Actual Average Record
Temperature  
Mean Temperature 53 °F 46 °F  
Max Temperature 68 °F 56 °F 82 °F (1986)
Min Temperature 37 °F 36 °F 22 °F (1987)
Degree Days  
Heating Degree Days 12 19  
Month to date heating degree days 12 19  
Since 1 July heating degree days 5743 5189  
Cooling Degree Days 0 0  
Month to date cooling degree days 0 0  
Year to date cooling degree days 0 1  
Growing Degree Days 2 (Base 50)    
Moisture  
Dew Point 33 °F    
Average Humidity 57    
Maximum Humidity 85    
Minimum Humidity 28    
Precipitation  
Precipitation 0.00 in 0.12 in 0.73 in (1993)
Month to date precipitation 0.00 0.12  
Year to date precipitation 5.96 7.61  
Sea Level Pressure  
Sea Level Pressure 30.05 in    
Wind  
Wind Speed 8 mph (SSW)    
Max Wind Speed 14 mph    
Max Gust Speed 18 mph    
Visibility 9 miles    
Events      
T = Trace of Precipitation, MM = Missing Value Source: NWS Daily Summary

Daily Weather History Graph

Daily Weather History Graph

Search for Another Location

Airport or City:

Trip Planner

Search our weather history database for the weather conditions in past years. The results will help you decide how hot, cold, wet, or windy it might be!

Date:

Astronomy

Apr. 01, 2015 Rise Set
Actual Time 7:25 AM EDT 8:05 PM EDT
Civil Twilight 6:58 AM EDT 8:33 PM EDT
Nautical Twilight 6:26 AM EDT 9:05 PM EDT
Astronomical Twilight 5:52 AM EDT 9:39 PM EDT
Moon 5:43 PM EDT (4/1) 5:56 AM EDT (4/1)
Length of Visible Light 13h 34m
Length of Day
12h 39m
Waxing Gibbous, 93% of the Moon is Illuminated
Apr 1
Waxing Gibbous
Apr 4
Full
Apr 11
Last Quarter
Apr 18
New
Apr 25
First Quarter

Hourly Weather History & Observations

Time (EDT) Temp. Windchill Dew Point Humidity Pressure Visibility Wind Dir Wind Speed Gust Speed Precip Events Conditions
12:53 AM 39.0 °F 34.8 °F 33.1 °F 79% 30.02 in 10.0 mi SSE 5.8 mph - N/A   Clear
1:53 AM 39.0 °F 34.8 °F 34.0 °F 82% 30.02 in 10.0 mi South 5.8 mph - N/A   Clear
2:53 AM 39.0 °F 34.0 °F 33.1 °F 79% 30.02 in 9.0 mi South 6.9 mph - N/A   Clear
3:53 AM 39.0 °F 33.4 °F 34.0 °F 82% 30.02 in 8.0 mi South 8.1 mph - N/A   Clear
4:53 AM 37.9 °F 32.1 °F 33.1 °F 83% 30.02 in 7.0 mi South 8.1 mph - N/A   Clear
5:53 AM 37.0 °F 32.4 °F 33.1 °F 86% 30.02 in 6.0 mi South 5.8 mph - N/A   Clear
6:53 AM 37.0 °F 31.6 °F 33.1 °F 86% 30.04 in 6.0 mi SSW 6.9 mph - N/A   Clear
7:53 AM 37.9 °F 31.5 °F 33.1 °F 83% 30.08 in 5.0 mi SSW 9.2 mph - N/A   Haze
8:53 AM 41.0 °F 34.3 °F 35.1 °F 79% 30.09 in 6.0 mi SW 11.5 mph - N/A   Haze
9:53 AM 48.0 °F - 36.0 °F 63% 30.11 in 10.0 mi SW 10.4 mph - N/A   Clear
10:53 AM 53.1 °F - 37.0 °F 55% 30.13 in 10.0 mi SW 8.1 mph - N/A   Clear
11:53 AM 57.0 °F - 35.1 °F 44% 30.14 in 10.0 mi SW 10.4 mph - N/A   Clear
12:53 PM 61.0 °F - 34.0 °F 36% 30.12 in 10.0 mi Variable 6.9 mph - N/A   Clear
1:53 PM 63.0 °F - 33.1 °F 33% 30.09 in 10.0 mi Variable 3.5 mph - N/A   Clear
2:53 PM 64.9 °F - 32.0 °F 29% 30.07 in 10.0 mi SSW 8.1 mph - N/A   Clear
3:53 PM 66.9 °F - 32.0 °F 27% 30.05 in 10.0 mi SW 8.1 mph - N/A   Clear
4:53 PM 66.9 °F - 32.0 °F 27% 30.04 in 10.0 mi SSW 9.2 mph - N/A   Clear
5:53 PM 66.9 °F - 32.0 °F 27% 30.04 in 10.0 mi South 10.4 mph - N/A   Clear
6:53 PM 66.0 °F - 33.1 °F 29% 30.03 in 10.0 mi SSW 10.4 mph - N/A   Clear
7:53 PM 63.0 °F - 34.0 °F 34% 30.02 in 10.0 mi SSW 9.2 mph - N/A   Clear
8:53 PM 60.1 °F - 34.0 °F 38% 30.03 in 10.0 mi South 6.9 mph - N/A   Clear
9:53 PM 57.9 °F - 34.0 °F 41% 30.03 in 10.0 mi South 6.9 mph - N/A   Clear
10:53 PM 55.9 °F - 32.0 °F 40% 30.01 in 10.0 mi South 9.2 mph - N/A   Clear
11:53 PM 55.9 °F - 30.0 °F 37% 29.99 in 10.0 mi South 10.4 mph - N/A   Clear